Starlink 32138

operational
NORAD ID: 60255 Int'l Des: 2024-131 Owner: SPXS Country: US Constellation: starlink
LEOCIRCULAR

关于 Starlink 32138

正在加载描述...

实时位置

正在加载3D地球...

即将过境

高度历史

Altitude vs Time

uPlot chart will show altitude changes over time

两行轨道根数

1 60255U 24131A 25258.42957687 .00003465 00000-0 12907-3 0 9999
2 60255 53.1595 146.6293 0001063 88.3050 271.8072 15.30193009 65181
Epoch: Sep 15, 2025 • Age: 19 hours

当前状态

高度 483.7 km
速度 7.62 km/s
星下点 -27.27°S, 50.49°E
发射日期 Jul 27, 2024
运行时间 1.1 years
类型 internet

技术详情

分类 Payload
质量 730.00 kg
干质量 700.00 kg
总质量 730.00 kg
长度 0.30 m
直径 4.10 m
跨度 29.00 m
形状 Box + pan
制造商 SPXS
平台类型 Starlink V2M
阶段状态 In Orbit
所有者/国家 SPXS/US

大型星座

Loading constellations...